TimePDT,TemperatureF,Dew PointF,Humidity,Sea Level PressureIn,VisibilityMPH,Wind Direction,Wind SpeedMPH,Gust SpeedMPH,PrecipitationIn,Events,Conditions,WindDirDegrees,DateUTC
12:55 AM,68.0,37.9,33,30.02,3.0,NW,8.1,-,N/A,,Haze,320,2012-09-18 07:55:00
1:53 AM,64.4,37.4,37,30.05,3.0,NW,12.7,-,N/A,,Haze,310,2012-09-18 08:53:00
1:55 AM,64.0,37.9,38,30.04,3.0,NW,11.5,-,N/A,,Haze,310,2012-09-18 08:55:00
2:04 AM,62.6,37.4,39,30.05,2.5,NW,9.2,-,N/A,,Haze,310,2012-09-18 09:04:00
2:55 AM,61.0,37.9,42,30.03,2.0,WNW,10.4,-,N/A,,Haze,300,2012-09-18 09:55:00
3:15 AM,62.6,37.4,39,30.05,3.0,NW,11.5,-,N/A,,Haze,310,2012-09-18 10:15:00
3:28 AM,62.6,37.4,39,30.05,2.5,NW,8.1,-,N/A,,Haze,310,2012-09-18 10:28:00
3:55 AM,57.9,39.0,49,30.03,2.0,West,8.1,-,N/A,,Haze,270,2012-09-18 10:55:00
4:29 AM,59.0,39.2,48,30.05,3.0,NNW,6.9,-,N/A,,Haze,340,2012-09-18 11:29:00
4:40 AM,60.8,37.4,42,30.05,2.5,WNW,3.5,-,N/A,,Haze,290,2012-09-18 11:40:00
4:55 AM,55.9,37.9,51,30.03,2.0,Calm,Calm,-,N/A,,Haze,0,2012-09-18 11:55:00
5:12 AM,59.0,37.4,45,30.05,3.0,NW,6.9,-,N/A,,Haze,320,2012-09-18 12:12:00
5:32 AM,57.2,39.2,51,30.06,2.5,WNW,3.5,-,N/A,,Haze,300,2012-09-18 12:32:00
5:47 AM,53.6,39.2,58,30.06,2.5,Calm,Calm,-,N/A,,Haze,0,2012-09-18 12:47:00
5:55 AM,55.0,39.0,55,30.04,2.5,Calm,Calm,-,N/A,,Haze,0,2012-09-18 12:55:00
6:21 AM,55.4,37.4,51,30.06,3.0,NNE,3.5,-,N/A,,Haze,20,2012-09-18 13:21:00
6:55 AM,55.0,37.9,53,30.06,2.0,NW,4.6,-,N/A,,Haze,310,2012-09-18 13:55:00
7:15 AM,55.4,39.2,54,30.07,1.8,Calm,Calm,-,N/A,,Haze,0,2012-09-18 14:15:00
7:55 AM,55.9,39.0,53,30.07,1.8,Calm,Calm,-,N/A,,Haze,0,2012-09-18 14:55:00
8:20 AM,57.2,37.4,48,30.08,2.0,NW,6.9,-,N/A,,Haze,310,2012-09-18 15:20:00
8:35 AM,59.0,39.2,48,30.08,1.5,WNW,5.8,-,N/A,,Haze,290,2012-09-18 15:35:00
8:55 AM,59.0,39.9,49,30.07,1.2,Calm,Calm,-,N/A,,Haze,0,2012-09-18 15:55:00
9:55 AM,60.1,41.0,49,30.07,1.8,West,3.5,-,N/A,,Haze,280,2012-09-18 16:55:00
10:55 AM,63.0,39.0,41,30.06,1.2,West,5.8,-,N/A,,Haze,280,2012-09-18 17:55:00
11:46 AM,64.4,37.4,37,30.07,0.8,WSW,4.6,-,N/A,,Haze,250,2012-09-18 18:46:00
11:53 AM,66.2,39.2,37,30.07,1.0,WSW,4.6,-,N/A,,Haze,240,2012-09-18 18:53:00
12:34 PM,69.8,37.4,31,30.05,0.8,Calm,Calm,-,N/A,,Haze,0,2012-09-18 19:34:00
12:55 PM,69.1,37.9,32,30.03,0.8,Calm,Calm,-,N/A,,Haze,0,2012-09-18 19:55:00
1:32 PM,69.8,39.2,33,30.03,1.0,Calm,Calm,-,N/A,,Haze,0,2012-09-18 20:32:00
1:40 PM,71.6,39.2,31,30.03,0.8,Calm,Calm,-,N/A,,Haze,0,2012-09-18 20:40:00
1:55 PM,72.0,39.0,30,30.01,0.8,Calm,Calm,-,N/A,,Haze,0,2012-09-18 20:55:00
2:43 PM,73.4,44.6,36,30.00,1.0,Calm,Calm,-,N/A,,Haze,0,2012-09-18 21:43:00
2:55 PM,73.0,44.1,35,29.99,1.0,ESE,3.5,-,N/A,,Haze,110,2012-09-18 21:55:00
3:55 PM,75.9,39.9,27,29.97,1.2,SE,4.6,-,N/A,,Haze,130,2012-09-18 22:55:00
4:24 PM,75.2,46.4,36,29.99,1.5,East,5.8,-,N/A,,Haze,100,2012-09-18 23:24:00
5:41 PM,73.4,46.4,38,29.98,2.0,East,5.8,-,N/A,,Haze,80,2012-09-19 00:41:00
5:55 PM,73.0,46.9,39,29.97,2.0,East,6.9,-,N/A,,Haze,90,2012-09-19 00:55:00
6:44 PM,73.4,41.0,31,29.98,1.8,SE,4.6,-,N/A,,Haze,130,2012-09-19 01:44:00
6:55 PM,73.9,41.0,30,29.96,1.5,SE,3.5,-,N/A,,Haze,140,2012-09-19 01:55:00
7:28 PM,68.0,44.6,43,29.98,3.0,Calm,Calm,-,N/A,,Haze,0,2012-09-19 02:28:00
7:55 PM,66.0,44.1,45,29.98,3.0,ENE,3.5,-,N/A,,Haze,60,2012-09-19 02:55:00
8:55 PM,66.9,42.1,40,29.99,4.0,WNW,3.5,-,N/A,,Haze,300,2012-09-19 03:55:00
9:14 PM,66.2,41.0,40,30.00,2.5,NW,3.5,-,N/A,,Haze,320,2012-09-19 04:14:00
9:55 PM,64.0,39.9,41,30.00,3.0,NW,3.5,-,N/A,,Haze,320,2012-09-19 04:55:00
10:19 PM,66.2,41.0,40,30.00,2.5,NNW,8.1,-,N/A,,Haze,330,2012-09-19 05:19:00
10:25 PM,68.0,39.2,35,30.00,1.8,NNW,6.9,-,N/A,,Haze,330,2012-09-19 05:25:00
10:55 PM,66.9,39.9,37,29.99,1.8,NW,3.5,-,N/A,,Haze,320,2012-09-19 05:55:00
11:18 PM,66.2,39.2,37,30.01,2.0,NNW,6.9,-,N/A,,Haze,330,2012-09-19 06:18:00
11:51 PM,69.8,37.4,31,30.02,2.0,West,5.8,-,N/A,,Haze,260,2012-09-19 06:51:00
11:55 PM,68.0,37.0,32,30.00,2.0,West,5.8,-,N/A,,Haze,280,2012-09-19 06:55:00